Location: Berg
(47.2344°N, 9.5296°E)
Time: 21:56:49
(UTC+00:00)

Nauka - Pass Details

Date: 24 September 2021
Orbit: 417 x 423 km, 51.6° (Epoch: 16 October)

Event Time Altitude Azimuth Distance (km) Brightness Sun altitude
Rises 18:52:42 0° 279° (W) 2,363 ? -17.1°
Reaches altitude 10° 18:54:53 10° 288° (WNW) 1,500 ? -17.5°
Maximum altitude 18:58:03 37° 358° (N) 673 ? -18.0°
Enters shadow 18:59:06 29° 39° (NE) 805 ? -18.1°
